Tracking 18794 objects as of 21-September-2017
HD Live streaming from Space Station
objects crossing your sky now

COSMOS 2382 (GLONASS)

Track COSMOS 2382 (GLONASS) now!
COSMOS 2382 (GLONASS) is classified as:


NORAD ID: 26987
Int'l Code: 2001-053A
Perigee: 19,121.6 km
Apogee: 19,151.9 km
Inclination: 62.9 °
Period: 675.7 minutes
Semi major axis: 25507 km
RCS: 3.1623 m2 (large)
Launch date: December 1, 2001
Source: Commonwealth of Independent States (former USSR) (CIS)
Launch site: TYURATAM MISSILE AND SPACE COMPLEX (TTMTR)
SV:

Russia's version of the GPS system, functions the same; there has been cooperation between the two; much scaled-back constellation
aabbcc
Your satellite tracking list
Your tracking list is empty





NASA's NSSDC Master Catalog

Two Line Element Set (TLE):
1 26987U 01053A   17264.20879308 +.00000005 +00000-0 +00000-0 0  9993
2 26987 062.9465 171.6985 0005931 186.3203 287.1238 02.13105448122952
Source of the keplerian elements: AFSPC